Simultaneous Nadir Overpasses (SNOs) Predictions

Prediction of SNOs between GOES-16 and AQUA Satellite Orbit:

Table of predicted SNOs for the next 14.0 days since TLE Epoch: 7/20/2018
Index Date Time (GOES-16) GOES-16 Lat,Lon AQUA Lat,Lon Distance(km) Time Diff (sec)
1 07/20/2018 18:45:28 0.02, -75.19 -0.50, -77.66 280.69 80
2 07/22/2018 18:36:00 0.02, -75.18 0.10, -74.71 53.16 80
3 07/24/2018 18:23:53 0.03, -75.18 0.76, -71.78 387.33 80
4 07/25/2018 06:45:10 -0.03, -75.19 0.34, -76.94 198.98 80
5 07/27/2018 06:33:03 -0.04, -75.20 -0.31, -74.01 135.91 80
6 07/27/2018 18:51:47 0.04, -75.19 -0.83, -79.19 455.27 80
7 07/29/2018 06:20:55 -0.04, -75.21 -0.91, -71.06 471.37 80
8 07/29/2018 18:39:40 0.04, -75.21 -0.17, -76.26 119.58 80
9 07/31/2018 18:30:12 0.04, -75.23 0.44, -73.32 216.82 80
10 08/01/2018 06:48:49 -0.05, -75.24 0.67, -78.48 369.02 80
11 08/03/2018 06:36:42 -0.05, -75.26 0.01, -75.55 32.04 80




NCC Satellite Simultaneous Nadir Overpasses (SNOs) Prediction Service
